Weather reports worldwide

Advertisment
Werl, Germany (10424): temperature & dewpoint: 10.11.2018 05:00:00 - 16.11.2018 05:00:00 (CET)Werl, Germany (10424): temperature 5cm & temperature -5cm: 10.11.2018 05:00:00 - 16.11.2018 05:00:00 (CET)Werl, Germany (10424): temperature -20cm & temperature -100cm: 10.11.2018 05:00:00 - 16.11.2018 05:00:00 (CET)Werl, Germany (10424): wind speed & gusts: 10.11.2018 05:00:00 - 16.11.2018 05:00:00 (CET)Werl, Germany (10424): wind direction: 10.11.2018 05:00:00 - 16.11.2018 05:00:00 (CET)Werl, Germany (10424): reduced air pressure: 10.11.2018 05:00:00 - 16.11.2018 05:00:00 (CET)Werl, Germany (10424): visibility: 10.11.2018 05:00:00 - 16.11.2018 05:00:00 (CET)Werl, Germany (10424): sunshine duration: 10.11.2018 05:00:00 - 16.11.2018 05:00:00 (CET)Werl, Germany (10424): precipitation: 10.11.2018 05:00:00 - 16.11.2018 05:00:00 (CET)
Date & Time tt [°C] td [°C] tt 5cm [°C] tt -5cm [°C] tt -20cm [°C] tt -100cm [°C] ff [km/h] ff [kn] fx [km/h] fx [kn] dd ppp [hPa] vv [km] sd [min] rr [mm]
16.11.2018 05:00:00 -1,6 -2,3 -4,2 1,8 5,1 11,6 4 2 8 4 ENE 1028,3 6 0 0,0
16.11.2018 04:00:00 -1,6 -2,3 -3,8 1,9 5,3 11,6 4 2 8 5 NNE 1028,0 5 0 0,0
16.11.2018 03:00:00 -1,3 -2,3 -4,2 2,1 5,5 11,6 2 1 7 4 SE 1027,7 8 0 0,0
16.11.2018 02:00:00 -0,5 -2,0 -4,1 2,3 5,7 11,6 5 3 13 7 E 1027,7 13 0 0,0
16.11.2018 01:00:00 2,8 -0,5 -1,2 2,5 5,9 11,6 8 4 14 7 ESE 1027,8 27 0 0,0
16.11.2018 00:00:00 2,4 -0,5 -1,4 2,7 6,1 11,6 9 5 20 11 SE 1027,5 26 0 0,0
15.11.2018 23:00:00 2,4 -0,4 -0,8 2,9 6,4 11,6 10 6 13 7 SE 1027,3 27 0 0,0
15.11.2018 22:00:00 1,9 0,5 -1,8 3,3 6,7 11,6 6 3 8 4 E 1027,1 22 0 0,0
15.11.2018 21:00:00 1,8 1,0 -2,2 3,7 7,0 11,6 5 3 6 4 E 1026,7 9 0 0,0
15.11.2018 20:00:00 2,2 1,3 -1,4 4,4 7,2 11,6 6 3 8 4 ENE 1026,8 6 0 0,0
15.11.2018 19:00:00 4,6 3,3 -1,0 5,1 7,5 11,6 4 2 9 5 E 1026,5 10 0 0,0
15.11.2018 18:00:00 6,5 4,1 2,7 5,9 7,7 11,6 8 4 10 6 ENE 1026,2 16 0 0,0
15.11.2018 17:00:00 8,0 4,7 2,1 6,9 7,7 11,7 6 3 7 4 ENE 1025,8 22 12 0,0
15.11.2018 16:00:00 9,3 5,2 9,2 7,9 7,6 11,7 4 2 13 7 NE 1025,9 24 60 0,0
15.11.2018 15:00:00 10,1 4,7 10,0 8,6 7,3 11,7 11 6 16 9 ENE 1026,0 28 60 0,0
15.11.2018 14:00:00 10,0 4,5 12,3 8,7 6,8 11,7 10 6 19 10 ENE 1026,0 35 60 0,0
15.11.2018 13:00:00 10,0 4,2 13,0 8,0 6,3 11,7 5 3 8 5 N 1026,3 33 60 0,0
15.11.2018 12:00:00 9,5 3,1 11,4 6,9 5,9 11,7 3 2 8 4 SE 1026,7 42 60 0,0
15.11.2018 11:00:00 7,7 2,7 10,1 4,9 5,7 11,7 0 0 8 4 N 1027,2 22 60 0,0
15.11.2018 10:00:00 3,7 1,8 6,6 2,9 5,7 11,7 4 2 5 3 NNE 1027,3 11 60 0,0
15.11.2018 09:00:00 0,5 -0,6 0,3 2,4 5,9 11,7 5 3 6 3 NE 1027,5 4,7 26 0,0
15.11.2018 08:00:00 0,1 -0,6 -2,3 2,5 6,0 11,7 5 3 8 4 ENE 1027,2 6 0 0,0
15.11.2018 07:00:00 0,5 -0,1 -2,3 2,6 6,2 11,7 5 3 10 5 E 1026,9 7 0 0,0
15.11.2018 06:00:00 0,8 0,1 -1,8 2,8 6,5 11,7 6 3 10 5 ENE 1026,8 7 0 0,0
15.11.2018 05:00:00 2,1 1,5 -2,1 2,9 6,7 11,7 6 3 10 5 E 1026,7 6 0 0,0
15.11.2018 04:00:00 1,1 0,2 -2,1 3,3 6,9 11,7 5 3 7 4 E 1027,1 7 0 0,0
15.11.2018 03:00:00 2,5 1,5 -1,1 3,6 7,2 11,7 6 3 12 7 E 1027,3 15 0 0,0
15.11.2018 02:00:00 3,4 2,5 -0,8 4,0 7,4 11,7 6 3 11 6 E 1027,1 23 0 0,0
15.11.2018 01:00:00 2,8 1,4 -0,3 4,4 7,7 11,7 8 4 13 7 NE 1027,1 17 0 0,0
15.11.2018 00:00:00 5,0 2,7 1,1 4,7 8,0 11,7 8 4 13 7 E 1027,2 22 0 0,0
14.11.2018 23:00:00 3,9 2,6 -0,8 5,0 8,2 11,7 6 3 9 5 ESE 1027,5 12 0 0,0
14.11.2018 22:00:00 5,9 3,3 2,3 5,5 8,5 11,7 6 4 11 6 E 1027,8 33 0 0,0
14.11.2018 21:00:00 5,0 3,0 1,8 6,1 8,8 11,7 6 4 11 6 E 1028,0 27 0 0,0
14.11.2018 20:00:00 6,5 3,6 2,3 6,6 9,1 11,7 9 5 13 7 SE 1028,0 31 0 0,0
14.11.2018 19:00:00 8,3 4,6 3,4 7,2 9,3 11,7 6 4 10 5 ESE 1027,8 31 0 0,0
14.11.2018 18:00:00 8,7 4,9 2,3 8,0 9,5 11,7 4 2 12 6 SSE 1027,7 56 0 0,0
14.11.2018 17:00:00 10,1 4,9 5,3 9,0 9,6 11,7 6 4 10 5 S 1027,9 60 0 0,0
14.11.2018 16:00:00 12,2 5,3 9,4 10,0 9,6 11,7 7 4 16 9 S 1028,1 70 56 0,0
14.11.2018 15:00:00 12,8 5,6 11,9 10,8 9,4 11,7 10 5 18 10 S 1028,3 66 60 0,0
14.11.2018 14:00:00 13,0 5,6 13,3 11,1 9,0 11,7 14 7 21 11 S 1028,4 56 60 0,0
14.11.2018 13:00:00 13,0 5,2 14,5 10,7 8,6 11,7 12 6 20 11 S 1029,0 50 60 0,0
14.11.2018 12:00:00 12,4 6,2 13,9 9,5 8,2 11,7 9 5 19 11 SSE 1029,4 47 60 0,0
14.11.2018 11:00:00 11,2 6,8 12,2 8,1 7,9 11,7 14 7 21 11 S 1029,8 41 60 0,0
14.11.2018 10:00:00 9,4 6,0 9,6 6,7 7,9 11,7 14 8 21 11 S 1029,7 30 60 0,0
14.11.2018 09:00:00 7,5 5,3 6,4 5,7 8,0 11,7 10 6 16 9 S 1029,8 26 24 0,0
14.11.2018 08:00:00 7,1 5,2 4,5 5,5 8,2 11,7 9 5 13 7 S 1029,3 29 0 0,0
14.11.2018 07:00:00 6,4 4,8 2,5 5,6 8,3 11,7 7 4 10 5 S 1029,1 23 0 0,0
14.11.2018 06:00:00 7,1 5,0 2,7 6,0 8,5 11,7 7 4 13 7 S 1029,2 27 0 0,0
14.11.2018 05:00:00 7,8 5,6 5,2 6,4 8,7 11,7 9 5 15 8 SSW 1029,6 34 0 0,0
14.11.2018 04:00:00 7,5 5,4 4,5 6,4 8,8 11,7 10 6 15 8 SSW 1029,9 33 0 0,0
14.11.2018 03:00:00 7,0 5,1 4,0 6,7 9,0 11,7 11 6 18 10 SSW 1030,0 34 0 0,0
14.11.2018 02:00:00 8,0 5,8 5,8 7,1 9,2 11,7 12 6 20 11 SSW 1029,8 36 0 0,0
14.11.2018 01:00:00 8,5 5,9 6,3 7,3 9,3 11,6 14 7 21 12 SW 1029,8 39 0 0,0
14.11.2018 00:00:00 8,8 6,1 6,4 7,6 9,5 11,6 12 7 18 10 SW 1029,4 40 0 0,0
13.11.2018 23:00:00 9,1 6,1 7,1 7,8 9,6 11,6 11 6 17 9 SW 1029,2 39 0 0,0
13.11.2018 22:00:00 9,6 6,5 8,2 8,0 9,8 11,6 14 7 22 12 SW 1029,0 39 0 0,0
13.11.2018 21:00:00 9,3 6,2 7,5 8,0 10,0 11,6 14 7 21 11 SW 1028,4 43 0 0,0
13.11.2018 20:00:00 9,3 6,0 7,1 8,4 10,2 11,6 12 6 22 12 SW 1027,9 48 0 0,0
13.11.2018 19:00:00 9,9 6,1 8,0 8,9 10,4 11,6 15 8 24 13 SW 1027,6 51 0 0,0
13.11.2018 18:00:00 10,2 6,0 8,4 9,3 10,6 11,6 12 6 34 18 SW 1027,0 61 0 0,0
13.11.2018 17:00:00 11,5 5,9 9,7 10,0 10,7 11,6 20 11 35 19 WSW 1026,1 70 11 0,0
13.11.2018 16:00:00 12,3 6,1 11,1 10,7 10,8 11,6 17 9 44 24 WSW 1024,9 67 47 0,0
13.11.2018 15:00:00 13,3 6,8 12,9 11,1 10,7 11,6 25 13 40 22 WSW 1023,9 64 35 0,0
13.11.2018 14:00:00 13,1 6,3 13,1 11,4 10,6 11,6 26 14 51 27 WSW 1023,5 55 26 0,0
13.11.2018 13:00:00 12,4 7,1 11,8 11,2 10,5 11,6 24 13 46 25 SW 1022,6 56 9 -
13.11.2018 12:00:00 12,2 7,7 12,2 10,9 10,4 11,6 21 11 41 22 SW 1022,8 56 0 -
13.11.2018 11:00:00 12,3 7,7 12,6 10,9 10,3 11,6 28 15 42 23 SW 1022,6 50 47 -
13.11.2018 10:00:00 11,8 7,7 11,5 9,9 10,3 11,6 27 14 39 21 WSW 1022,2 49 44 -
13.11.2018 09:00:00 10,8 7,2 9,1 9,3 10,3 11,6 14 8 27 14 SW 1021,6 58 0 -
13.11.2018 08:00:00 10,9 7,4 9,7 9,6 10,4 11,6 16 9 25 13 SSW 1021,0 52 0 -
13.11.2018 07:00:00 10,8 8,1 9,6 9,6 10,5 11,6 12 6 21 11 SSW 1020,5 31 0 -
13.11.2018 06:00:00 10,2 8,3 9,1 9,7 10,6 11,6 10 5 14 8 SW 1020,0 10 0 -
13.11.2018 05:00:00 10,1 8,2 8,9 9,8 10,7 11,6 7 4 13 7 WSW 1019,7 9 0 -
13.11.2018 04:00:00 10,3 8,5 9,1 10,1 10,9 11,6 8 4 13 7 WSW 1019,7 9 0 -
13.11.2018 03:00:00 10,7 8,8 9,7 10,3 11,0 11,5 9 5 13 7 S 1019,0 9 0 -
13.11.2018 02:00:00 10,9 9,0 9,8 10,6 11,0 11,5 8 4 11 6 WSW 1019,6 10 0 -
13.11.2018 01:00:00 10,8 9,4 10,1 10,7 11,1 11,5 5 3 7 4 S 1019,3 9 0 -
13.11.2018 00:00:00 10,8 9,3 10,1 10,8 11,2 11,5 6 3 10 5 SW 1019,3 10 0 -
12.11.2018 23:00:00 10,9 9,7 10,1 11,0 11,3 11,5 8 4 12 6 SW 1018,6 9 0 -
12.11.2018 22:00:00 11,4 9,5 10,6 11,3 11,4 11,5 9 5 13 7 SW 1018,6 10 0 -
12.11.2018 21:00:00 11,5 10,0 11,0 11,5 11,5 11,5 7 4 15 8 WSW 1018,5 8 0 -
12.11.2018 20:00:00 11,6 9,9 11,1 11,7 11,6 11,5 11 6 21 11 W 1017,8 7 0 -
12.11.2018 19:00:00 11,9 10,6 11,5 12,0 11,7 11,5 17 9 22 12 WNW 1016,7 6 0 -
12.11.2018 18:00:00 12,3 11,1 11,9 12,3 11,7 11,5 15 8 22 12 W 1015,4 6 0 -
12.11.2018 17:00:00 12,7 11,7 12,4 12,7 11,8 11,5 11 6 18 10 WNW 1014,3 7 0 -
12.11.2018 16:00:00 13,1 11,9 12,6 13,2 11,7 11,5 20 11 48 26 W 1013,5 11 0 -
12.11.2018 15:00:00 18,4 11,4 17,1 13,9 11,5 11,5 29 15 44 24 SSW 1011,8 70 46 -
12.11.2018 14:00:00 19,0 11,9 19,2 14,1 11,2 11,5 27 15 50 27 SSW 1011,8 59 42 0,0
12.11.2018 13:00:00 18,8 11,9 19,0 13,7 10,8 11,5 27 15 53 29 SSW 1011,8 43 56 0,0
12.11.2018 12:00:00 17,9 12,1 18,3 12,9 10,5 11,5 28 15 45 24 SSW 1011,5 34 23 0,0
12.11.2018 11:00:00 13,5 11,3 14,1 11,8 10,3 11,5 4 2 13 7 E 1012,2 57 15 0,0
12.11.2018 10:00:00 11,8 10,4 12,6 11,0 10,2 11,5 5 3 14 8 NNE 1012,6 51 23 0,0
12.11.2018 09:00:00 11,3 10,0 10,8 10,3 10,2 11,5 4 2 9 5 ENE 1013,1 43 0 0,1
12.11.2018 08:00:00 11,3 9,8 10,5 10,1 10,1 11,5 5 3 18 10 SE 1013,4 12 0 0,7
12.11.2018 07:00:00 11,8 9,5 10,5 10,1 10,1 11,5 11 6 23 12 S 1013,2 15 0 0,3
12.11.2018 06:00:00 12,1 9,1 10,6 10,0 10,1 11,5 6 3 30 16 S 1013,3 40 0 0,1
12.11.2018 05:00:00 12,1 9,0 11,1 9,9 10,1 11,5 12 7 21 12 S 1013,2 70 0 0,0
12.11.2018 04:00:00 11,5 8,7 10,1 9,9 10,2 11,5 8 5 19 10 SE 1013,4 70 0 0,0
12.11.2018 03:00:00 11,1 8,4 10,2 9,8 10,2 11,5 10 5 14 8 S 1013,8 70 0 0,0
12.11.2018 02:00:00 11,4 8,3 10,1 9,9 10,3 11,5 8 5 17 9 S 1013,7 70 0 0,0
12.11.2018 01:00:00 11,4 8,4 10,3 10,1 10,4 11,5 10 6 22 12 S 1013,5 70 0 0,0
12.11.2018 00:00:00 11,5 8,6 10,2 10,1 10,4 11,5 11 6 21 11 SSW 1013,1 70 0 0,0
11.11.2018 23:00:00 11,3 8,8 10,0 10,3 10,5 11,5 13 7 20 11 S 1012,4 70 0 0,3
11.11.2018 22:00:00 11,8 8,7 10,4 10,5 10,5 11,5 13 7 29 15 S 1011,7 70 0 0,2
11.11.2018 21:00:00 12,5 8,9 10,8 10,6 10,5 11,5 22 12 33 18 SSW 1011,2 37 0 0,3
11.11.2018 20:00:00 13,2 9,4 11,3 10,7 10,6 11,5 20 11 33 18 SSW 1010,2 66 0 0,1
11.11.2018 19:00:00 13,1 9,0 11,9 10,7 10,6 11,5 18 10 33 18 S 1009,7 70 0 0,0
11.11.2018 18:00:00 13,1 9,3 12,0 10,8 10,7 11,4 21 11 31 17 S 1009,6 70 0 0,0
11.11.2018 17:00:00 12,7 9,1 11,0 11,0 10,7 11,4 14 8 37 20 SSW 1009,4 70 0 0,2
11.11.2018 16:00:00 12,7 9,2 11,1 11,3 10,7 11,4 21 12 36 19 S 1008,6 47 0 0,5
11.11.2018 15:00:00 14,1 7,9 13,3 11,6 10,6 11,4 24 13 42 23 SSW 1008,5 70 0 0,0
11.11.2018 14:00:00 14,4 7,5 13,9 11,9 10,5 11,4 22 12 48 26 SSW 1008,0 69 4 0,0
11.11.2018 13:00:00 14,4 7,4 14,1 12,0 10,3 11,4 26 14 49 26 SSW 1008,1 65 28 0,0
11.11.2018 12:00:00 14,6 7,7 15,4 11,7 10,0 11,4 24 13 46 25 SSW 1007,2 31 56 0,0
11.11.2018 11:00:00 13,8 8,3 14,6 10,8 9,9 11,4 25 13 46 25 S 1007,3 68 17 0,0
11.11.2018 10:00:00 13,2 7,8 12,2 10,3 9,8 11,4 26 14 44 24 S 1006,9 70 25 0,0
11.11.2018 09:00:00 12,8 8,0 12,5 9,7 9,8 11,4 22 12 35 19 S 1006,4 70 5 0,0
11.11.2018 08:00:00 12,4 7,7 11,3 9,6 9,9 11,4 19 10 31 17 S 1005,9 70 0 0,0
11.11.2018 07:00:00 12,3 8,0 11,0 9,7 9,9 11,4 17 9 29 16 S 1005,8 70 0 0,0
11.11.2018 06:00:00 12,5 8,1 11,2 9,8 9,9 11,4 19 10 36 19 S 1005,3 70 0 0,0
11.11.2018 05:00:00 12,7 8,0 11,4 9,7 10,0 11,4 22 12 40 22 S 1005,3 70 0 0,0
11.11.2018 04:00:00 12,7 8,2 11,0 9,7 10,1 11,4 22 12 34 18 S 1005,0 70 0 0,0
11.11.2018 03:00:00 12,6 8,9 10,9 9,8 10,1 11,4 15 8 24 13 S 1005,3 70 0 0,0
11.11.2018 02:00:00 12,8 9,3 11,2 10,3 10,1 11,4 11 6 19 10 SSE 1005,1 70 0 0,0
11.11.2018 01:00:00 12,7 9,8 10,9 10,5 10,1 11,4 9 5 16 9 S 1005,3 70 0 0,0
11.11.2018 00:00:00 12,8 10,6 11,5 10,6 10,1 11,4 8 5 18 10 S 1005,2 64 0 0,0
10.11.2018 23:00:00 13,1 10,8 11,6 10,6 10,1 11,4 10 6 19 11 S 1004,9 27 0 0,6
10.11.2018 22:00:00 13,3 10,6 11,6 10,6 10,0 11,4 13 7 38 21 S 1004,6 20 0 0,3
10.11.2018 21:00:00 14,3 9,7 13,3 10,5 10,0 11,4 19 11 37 20 S 1004,3 70 0 0,0
10.11.2018 20:00:00 13,8 9,5 12,6 10,4 10,0 11,4 23 13 37 20 S 1004,4 64 0 0,0
10.11.2018 19:00:00 13,5 9,5 12,1 10,4 10,0 11,4 18 10 30 16 S 1004,2 49 0 0,0
10.11.2018 18:00:00 13,7 9,6 12,6 10,6 10,0 11,4 21 11 34 18 S 1004,0 53 0 0,0
10.11.2018 17:00:00 13,7 9,6 12,7 10,8 10,0 11,4 21 12 34 18 SSE 1004,0 43 0 0,0
10.11.2018 16:00:00 14,0 9,7 13,1 11,1 9,8 11,4 19 11 35 19 S 1004,1 42 0 0,0
10.11.2018 15:00:00 14,1 9,6 13,6 11,1 9,7 11,4 20 11 37 20 S 1004,1 45 0 0,0
10.11.2018 14:00:00 13,6 9,5 12,5 10,8 9,5 11,4 21 12 36 19 S 1004,5 27 0 0,0
10.11.2018 13:00:00 13,7 9,1 13,2 10,6 9,4 11,4 16 9 37 20 SSW 1005,0 39 0 0,0
10.11.2018 12:00:00 13,6 8,7 13,2 10,3 9,3 11,4 26 14 47 25 S 1005,0 41 0 0,0
10.11.2018 11:00:00 13,3 8,3 12,8 10,0 9,1 11,4 26 14 50 27 S 1005,1 39 0 0,0
10.11.2018 10:00:00 13,6 7,9 12,9 9,7 9,0 11,4 29 16 47 25 S 1004,9 42 0 0,0
10.11.2018 09:00:00 13,3 7,8 12,1 9,3 8,9 11,4 27 15 44 24 S 1004,8 29 0 0,0
10.11.2018 08:00:00 13,9 7,0 12,7 9,1 8,8 11,5 24 13 49 26 S 1004,6 41 0 0,0
10.11.2018 07:00:00 14,6 6,6 13,1 8,8 8,8 11,5 27 14 49 27 S 1004,4 56 0 0,0
10.11.2018 06:00:00 13,8 6,9 12,3 8,8 8,7 11,5 21 12 39 21 S 1004,6 47 0 0,0
10.11.2018 05:00:00 13,5 6,5 12,2 8,6 8,6 11,5 25 14 43 23 S 1005,3 35 0 0,0

tt = temperature
td = dewpoint
tt 5cm = temperature 5cm
tt -5cm = temperature -5cm
tt -20cm = temperature -20cm
tt -100cm = temperature -100cm
ff = wind speed
fx = gusts
dd = wind direction
ppp = reduced air pressure
vv = visibility
sd = sunshine duration
rr = precipitation

Next stations